This is the latest recevied weather packets stored in our database for station/object NR0A-4. If no packets are shown the sender has not sent any weather packets the latest 10 day(s).
| Time | Temp. | Humidity | Pressure | Rain* | Wind** | Luminosity | Snow |
|---|---|---|---|---|---|---|---|
| 1778183104 | 20.56° C | 28% | 1009.5 hPa | 0 mm | - | 844 W/m² | - |
| 1778182804 | 20.56° C | 30% | 1009.5 hPa | 0 mm | - | 847 W/m² | - |
| 1778182504 | 20.56° C | 25% | 1009.6 hPa | 0 mm | - | 854 W/m² | - |
| 1778182204 | 20.56° C | 24% | 1009.6 hPa | 0 mm | - | 863 W/m² | - |
| 1778181905 | 20.56° C | 26% | 1009.6 hPa | 0 mm | - | 868 W/m² | - |
| 1778181604 | 20.56° C | 24% | 1009.6 hPa | 0 mm | - | 874 W/m² | - |
| 1778181305 | 20.56° C | 23% | 1009.6 hPa | 0 mm | - | 875 W/m² | - |
| 1778181004 | 20.56° C | 27% | 1009.6 hPa | 0 mm | - | 872 W/m² | - |
| 1778180705 | 20.56° C | 28% | 1009.5 hPa | 0 mm | - | 881 W/m² | - |
| 1778180405 | 20° C | 24% | 1009.5 hPa | 0 mm | - | 882 W/m² | - |
| 1778180105 | 20° C | 26% | 1009.6 hPa | 0 mm | - | 882 W/m² | - |
| 1778179805 | 20° C | 27% | 1009.6 hPa | 0 mm | - | 884 W/m² | - |
| 1778179504 | 20° C | 29% | 1009.5 hPa | 0 mm | - | 884 W/m² | - |
| 1778179204 | 20° C | 32% | 1009.5 hPa | 0 mm | - | 889 W/m² | - |
| 1778178904 | 19.44° C | 32% | 1009.5 hPa | 0 mm | - | 891 W/m² | - |
| 1778178604 | 19.44° C | 34% | 1009.4 hPa | 0 mm | - | 886 W/m² | - |
| 1778178304 | 19.44° C | 29% | 1009.5 hPa | 0 mm | - | 893 W/m² | - |
| 1778178005 | 19.44° C | 28% | 1009.5 hPa | 0 mm | - | 889 W/m² | - |
| 1778177704 | 18.89° C | 30% | 1009.6 hPa | 0 mm | - | 889 W/m² | - |
| 1778177405 | 18.89° C | 31% | 1009.6 hPa | 0 mm | - | 889 W/m² | - |
| 1778177104 | 18.89° C | 32% | 1009.6 hPa | 0 mm | - | 886 W/m² | - |
| 1778176804 | 18.33° C | 40% | 1009.6 hPa | 0 mm | - | 884 W/m² | - |
| 1778176505 | 18.33° C | 37% | 1009.6 hPa | 0 mm | - | 881 W/m² | - |
| 1778176204 | 17.78° C | 37% | 1009.6 hPa | 0 mm | - | 872 W/m² | - |
| 1778175905 | 17.78° C | 37% | 1009.7 hPa | 0 mm | - | 879 W/m² | - |
* Rain latest hour (hover to see other rain measurements)
** Current wind speed in m/s (hover to see current wind gust speed)